"Time","Temp","Dewpoint","Humidity","Pressure","Direction","Speed","Gust","Precip","PrecipRate"
"00:04:58","67.8","52.6","58.4","29.99","348","0.2","1.2","0.00","0.00"
"00:09:56","67.5","52.7","59","29.99","348","0","0","0.00","0.00"
"00:14:56","67.1","53","60.6","30.00","348","0","0","0.00","0.00"
"00:19:57","66.6","53.5","62.6","30.00","348","0","1.2","0.00","0.00"
"00:24:57","66","53.1","63.3","30.00","348","0","1.2","0.00","0.00"
"00:29:58","65.3","53","64.4","30.00","348","0","0","0.00","0.00"
"00:34:59","64.7","53","65.9","30.00","348","0","0","0.00","0.00"
"00:39:57","64.2","52.7","66.2","30.00","348","0","0","0.00","0.00"
"00:44:58","63.7","52.5","67","30.00","348","0","0","0.00","0.00"
"00:49:59","63.5","52.5","67.5","30.00","348","0.1","2.4","0.00","0.00"
"00:54:56","63.5","52.7","68","30.00","348","0.3","2.3","0.00","0.00"
"00:59:57","63.4","52.7","68","30.00","348","0","0","0.00","0.00"
"01:04:57","63.3","52.7","68.2","30.00","348","0.4","3.6","0.00","0.00"
"01:09:57","63.3","52.7","68.2","30.00","348","0.1","2.3","0.00","0.00"
"01:14:59","63.4","53","69","30.01","348","0","0","0.00","0.00"
"01:19:56","63.3","53.2","69.7","30.01","348","0.1","1.2","0.00","0.00"
"01:24:56","63","53.1","70.1","30.01","348","0","0","0.00","0.00"
"01:29:57","62.7","53.2","71","30.01","348","0","0","0.00","0.00"
"01:34:56","62.5","53","71.1","30.01","348","0","0","0.00","0.00"
"01:39:58","62.2","53.3","72.8","30.01","348","0","0","0.00","0.00"
"01:44:59","61.7","53.1","73.2","30.01","348","0.1","2.4","0.00","0.00"
"01:49:56","61.3","53.2","74.9","30.01","348","0.1","2.3","0.00","0.00"
"01:54:57","61","53","75","30.01","348","0","0","0.00","0.00"
"01:59:58","60.8","53","75.6","30.01","348","0","0","0.00","0.00"
"02:04:59","60.7","52.9","75.6","30.01","348","0","1.2","0.00","0.00"
"02:09:59","60.5","53.3","77","30.01","348","0.2","1.2","0.00","0.00"
"02:14:56","60.3","53.2","77.3","30.01","348","0.2","1.2","0.00","0.00"
"02:19:57","60.2","53","77.2","30.01","348","0","0","0.00","0.00"
"02:24:58","60.2","53","77","30.01","348","0","0","0.00","0.00"
"02:29:59","60.2","53.1","77.4","30.01","348","0","0","0.00","0.00"
"02:34:59","60.1","53.2","78","30.01","348","0","0","0.00","0.00"
"02:39:57","60","53.1","78","30.01","348","0","0","0.00","0.00"
"02:44:58","60.2","53.2","77.8","30.01","348","0","0","0.00","0.00"
"02:49:59","60.3","53.1","77","30.01","348","0","0","0.00","0.00"
"02:54:59","60.4","53.2","77","30.01","348","0","0","0.00","0.00"
"02:59:56","60.2","53.3","78","30.01","348","0","0","0.00","0.00"
"03:04:58","59.9","53","78","30.01","348","0","0","0.00","0.00"
"03:09:58","59.8","53.2","78.8","30.01","348","0","0","0.00","0.00"
"03:14:59","59.7","53","78.5","30.01","348","0","0","0.00","0.00"
"03:19:57","59.6","53.1","79","30.01","348","0","0","0.00","0.00"
"03:24:57","59.4","52.9","79","30.01","348","0","0","0.00","0.00"
"03:29:58","59.2","53","80.1","30.01","348","0","0","0.00","0.00"
"03:34:59","58.8","53.2","81.7","30.01","348","0","0","0.00","0.00"
"03:39:57","58.5","53.2","82.5","30.01","348","0","0","0.00","0.00"
"03:44:56","58.2","53.2","83.3","30.02","348","0","0","0.00","0.00"
"03:49:58","57.9","53.1","84","30.02","348","0","0","0.00","0.00"
"03:54:56","57.7","52.9","84","30.02","348","0","1.2","0.00","0.00"
"03:59:58","57.7","53","84.4","30.02","347","1","4.8","0.00","0.00"
"04:04:59","58.3","53.2","83.1","30.02","354","2","6","0.00","0.00"
"04:09:59","59.4","53.6","81.2","30.02","344","0.7","4.6","0.00","0.00"
"04:14:57","60.1","53.9","79.8","30.02","344","0.5","3.6","0.00","0.00"
"04:19:58","60.4","54.1","79.5","30.02","344","0","1.2","0.00","0.00"
"04:24:56","60.4","53.5","78","30.02","344","0","1.2","0.00","0.00"
"04:29:57","60.5","53.6","78","30.03","344","0","1.2","0.00","0.00"
"04:34:58","60.4","53.5","78","30.03","344","0","0","0.00","0.00"
"04:39:56","60.2","53.4","78.4","30.03","344","0","0","0.00","0.00"
"04:44:56","59.8","53.3","79","30.03","344","0","0","0.00","0.00"
"04:49:57","59.5","53.1","79.5","30.03","344","0","0","0.00","0.00"
"04:54:58","59.2","53","80.1","30.03","344","0","0","0.00","0.00"
"04:59:59","58.8","53.1","81.4","30.03","344","0","0","0.00","0.00"
"05:04:59","58.4","52.9","82","30.03","344","0","1.2","0.00","0.00"
"05:09:59","58.1","52.9","82.9","30.03","344","0","1.2","0.00","0.00"
"05:14:57","57.7","52.8","83.7","30.04","344","0.1","1.2","0.00","0.00"
"05:19:58","57.5","52.7","84","30.04","344","0","0","0.00","0.00"
"05:24:59","57.4","52.6","84","30.04","344","0","1.2","0.00","0.00"
"05:29:59","57.3","52.5","84","30.04","344","0","1.2","0.00","0.00"
"05:34:59","57.3","52.5","84","30.04","344","0","0","0.00","0.00"
"05:39:57","57.3","52.6","84.4","30.04","344","0","0","0.00","0.00"
"05:44:58","57.4","52.8","84.9","30.05","344","0","1.2","0.00","0.00"
"05:49:58","57.5","52.8","84.5","30.05","344","0","0","0.00","0.00"
"05:54:59","57.6","53.1","84.8","30.05","344","0","1.2","0.00","0.00"
"05:59:59","57.7","53.1","84.7","30.05","344","0.4","2.4","0.00","0.00"
"06:04:56","57.7","53","84.4","30.05","344","0.2","1.2","0.00","0.00"
"06:09:57","57.7","53.2","85","30.05","344","1","2.4","0.00","0.00"
"06:14:59","57.7","53.3","85.6","30.05","344","0.8","2.4","0.00","0.00"
"06:19:56","57.6","53.4","86","30.05","344","0.7","2.4","0.00","0.00"
"06:24:56","57.5","53.3","86","30.05","344","1.1","2.4","0.00","0.00"
"06:29:57","57.4","53.2","86","30.06","344","0.2","1.2","0.00","0.00"
"06:34:58","57.2","53","86","30.06","344","0","0","0.00","0.00"
"06:39:56","57.1","53","86.3","30.06","344","0","0","0.00","0.00"
"06:44:57","56.9","53.1","87","30.06","344","0","0","0.00","0.00"
"06:49:58","56.8","53","87","30.06","344","0","0","0.00","0.00"
"06:54:58","56.6","52.8","87","30.06","344","0","0","0.00","0.00"
"06:59:59","56.5","52.8","87.5","30.07","344","0","0","0.00","0.00"
"07:04:59","56.3","52.8","88","30.07","344","0","0","0.00","0.00"
"07:09:59","56.3","52.9","88.5","30.07","344","0","0","0.00","0.00"
"07:14:57","56.5","53.3","89","30.07","344","0","0","0.00","0.00"
"07:19:57","57","53.8","88.8","30.07","344","0","0","0.00","0.00"
"07:24:57","57.5","54","88","30.07","344","0","0","0.00","0.00"
"07:29:58","58.1","54.6","88","30.08","344","0","0","0.00","0.00"
"07:34:58","58.7","54.8","87","30.08","344","0","0","0.00","0.00"
"07:39:59","59.3","55.1","86","30.08","344","0","0","0.00","0.00"
"07:44:56","59.8","55.3","85.1","30.08","344","0","0","0.00","0.00"
"07:49:57","60.2","55.4","84.4","30.08","344","0","0","0.00","0.00"
"07:54:56","60.5","55.3","83.1","30.08","344","0","0","0.00","0.00"
"07:59:57","61","55.5","81.9","30.09","344","0","0","0.00","0.00"
"08:04:58","61.8","55.4","79.5","30.09","344","0","0","0.00","0.00"
"08:09:57","62.7","56.2","79.5","30.09","344","0","0","0.00","0.00"
"08:14:58","63.4","56.4","77.8","30.10","344","0","0","0.00","0.00"
"08:19:59","64.1","56.4","76.3","30.10","344","0","0","0.00","0.00"
"08:24:59","64.6","56.6","75.2","30.10","19","0","0","0.00","0.00"
"08:29:59","65","56.1","73","30.10","19","0","0","0.00","0.00"
"08:34:59","65.5","56.8","73.5","30.10","19","0","0","0.00","0.00"
"08:39:57","66","56.8","72.4","30.10","19","0.5","2.4","0.00","0.00"
"08:44:57","66.3","56.5","70.7","30.11","21","1","2.4","0.00","0.00"
"08:49:57","66.5","56.6","70.5","30.11","19","1.2","3.6","0.00","0.00"
"08:54:57","66.9","56.7","69.9","30.11","347","0.9","3.6","0.00","0.00"
"08:59:57","67.5","55.8","66.2","30.11","245","2.6","4.8","0.00","0.00"
"09:04:57","68.1","55.2","63.5","30.11","200","2","3.6","0.00","0.00"
"09:09:56","68.6","55.7","63.3","30.11","173","0.8","3.6","0.00","0.00"
"09:14:57","69.3","55.5","61.6","30.11","169","1.2","3.6","0.00","0.00"
"09:19:56","69.9","55.9","61","30.11","169","1.2","2.4","0.00","0.00"
"09:24:59","70.5","56.2","60.6","30.11","188","1.5","4.8","0.00","0.00"
"09:29:58","70.7","55.6","58.9","30.11","230","1.7","4.6","0.00","0.00"
"09:34:56","70.6","55.3","58.5","30.11","305","1.4","3.6","0.00","0.00"
"09:39:57","70.8","55.7","59","30.11","323","1.8","4.8","0.00","0.00"
"09:44:56","71.1","55.8","58.5","30.11","281","1.7","7.2","0.00","0.00"
"09:49:59","71","55.1","57.3","30.11","345","3.2","6.9","0.00","0.00"
"09:54:58","71.1","56.2","59.3","30.11","257","2.4","6","0.00","0.00"
"09:59:57","71.5","55.9","57.8","30.11","313","3.2","7.2","0.00","0.00"
"10:04:57","71.7","55.5","56.7","30.11","282","2.6","6","0.00","0.00"
"10:09:57","71.8","55","55.5","30.11","5","3.5","9.6","0.00","0.00"
"10:14:56","71.9","55.1","55.5","30.12","353","2.8","9.2","0.00","0.00"
"10:19:59","72.3","55.9","56.4","30.12","189","3","6.9","0.00","0.00"
"10:24:58","72.6","55.9","55.9","30.12","189","2","4.8","0.00","0.00"
"10:29:57","72.9","55.7","54.8","30.12","318","3.9","10.8","0.00","0.00"
"10:34:56","73.1","55.9","54.9","30.12","247","3.1","12","0.00","0.00"
"10:39:56","73.3","54.8","52.6","30.12","255","4","7.2","0.00","0.00"
"10:44:56","73.5","55.1","52.5","30.12","347","3.8","12","0.00","0.00"
"10:49:59","74.1","55.1","51.5","30.12","341","3.8","12","0.00","0.00"
"10:54:59","74.3","55.1","51.2","30.12","346","3.4","11.5","0.00","0.00"
"10:59:58","74.8","54.7","49.6","30.12","340","2.3","8.4","0.00","0.00"
"11:04:58","74.6","54.7","50.1","30.12","277","3.3","8.1","0.00","0.00"
"11:09:58","74.6","54.7","50.1","30.12","298","3","7.2","0.00","0.00"
"11:14:58","74.6","54.7","50","30.12","351","1.4","7.2","0.00","0.00"
"11:19:59","74.7","54.4","49.4","30.11","337","4","10.8","0.00","0.00"
"11:24:59","74.7","53.8","48.3","30.11","334","3.4","10.8","0.00","0.00"
"11:29:59","74.9","54.8","49.7","30.11","328","2.1","7.2","0.00","0.00"
"11:34:59","75.3","54","47.6","30.11","224","2.7","7.2","0.00","0.00"
"11:39:59","75.1","53.6","47.2","30.11","338","4","12","0.00","0.00"
"11:44:59","75.7","54.4","47.5","30.11","225","4.7","11.5","0.00","0.00"
"11:49:59","76.3","54.9","47.5","30.11","262","4.3","12","0.00","0.00"
"11:54:59","76.4","54.7","47.2","30.11","284","3","6.9","0.00","0.00"
"11:59:58","76.4","54.4","46.6","30.11","231","3.2","6","0.00","0.00"
"12:04:58","76.5","54.8","47.1","30.11","259","4.3","12","0.00","0.00"
"12:09:58","76.2","52.6","43.9","30.11","309","4.2","15","0.00","0.00"
"12:14:59","76.3","54.2","46.4","30.11","248","2.7","6","0.00","0.00"
"12:19:59","77.5","55.4","46.5","30.10","305","1.5","6","0.00","0.00"
"12:24:56","78.1","55","45","30.10","330","3.3","7.2","0.00","0.00"
"12:29:56","78.2","54.2","43.4","30.10","259","3.4","6.9","0.00","0.00"
"12:34:56","77.7","54.4","44.7","30.10","242","3.1","10.8","0.00","0.00"
"12:39:58","78.1","53.4","42.4","30.10","256","4.1","15","0.00","0.00"
"12:44:57","77.8","53.4","42.8","30.10","216","3","7.2","0.00","0.00"
"12:49:58","78.5","53.1","41.4","30.09","265","3.9","9.6","0.00","0.00"
"12:54:58","78.5","53.9","42.6","30.09","232","2.9","7.2","0.00","0.00"
"12:59:58","78.5","54.4","43.5","30.09","182","2.3","8.4","0.00","0.00"
"13:04:58","78.7","55.3","44.7","30.09","114","2.5","10.8","0.00","0.00"
"13:09:56","79.3","55.4","43.9","30.09","327","2.2","10.4","0.00","0.00"
"13:14:58","79.5","54.1","41.6","30.09","265","3.7","7.2","0.00","0.00"
"13:19:56","79.4","55.8","44.4","30.08","328","2","6","0.00","0.00"
"13:24:58","80.1","56.6","44.7","30.08","275","2.3","6","0.00","0.00"
"13:29:58","79","54.6","43","30.08","107","1.9","4.8","0.00","0.00"
"13:34:59","78.7","54.7","43.7","30.08","348","2.6","10.8","0.00","0.00"
"13:39:57","79.7","55.1","42.8","30.08","341","3.5","10.4","0.00","0.00"
"13:44:59","80.4","55.2","42","30.08","321","4","10.8","0.00","0.00"
"13:49:59","80.3","54.4","40.8","30.08","318","3.3","8.4","0.00","0.00"
"13:54:59","81","55.3","41.3","30.08","268","2.9","7.2","0.00","0.00"
"13:59:56","81.6","54.1","38.9","30.08","347","3.3","12","0.00","0.00"
"14:04:58","81.7","53.5","37.9","30.07","334","3.1","9.6","0.00","0.00"
"14:09:59","81.1","53.2","38.3","30.07","278","3.6","10.8","0.00","0.00"
"14:14:57","80.6","51.6","36.7","30.07","328","2.6","7.2","0.00","0.00"
"14:19:59","80.8","54","39.7","30.07","331","3.1","12","0.00","0.00"
"14:24:56","82.1","53.9","37.9","30.07","256","4.3","10.8","0.00","0.00"
"14:29:57","81.8","53.4","37.7","30.07","265","3","9.6","0.00","0.00"
"14:34:59","82.2","53.5","37.2","30.06","243","3.2","7.2","0.00","0.00"
"14:39:57","82.8","53.4","36.4","30.06","267","3.1","7.2","0.00","0.00"
"14:44:59","82.7","53","36","30.06","222","2.9","8.4","0.00","0.00"
"14:49:57","82.6","52.9","36","30.05","259","4.7","13.2","0.00","0.00"
"14:54:58","83.1","54.3","37.3","30.05","269","3.2","9.6","0.00","0.00"
"14:59:59","82.8","53.5","36.5","30.05","330","3.8","9.2","0.00","0.00"
"15:04:57","82.9","54","37","30.05","210","4.3","9.6","0.00","0.00"
"15:09:58","83.4","54.4","37","30.05","175","1.7","6","0.00","0.00"
"15:14:56","83.5","54.1","36.5","30.05","240","3.3","8.4","0.00","0.00"
"15:19:57","84.1","54.9","37","30.05","307","3.2","7.2","0.00","0.00"
"15:24:57","83.2","54.8","37.8","30.05","192","2","5.8","0.00","0.00"
"15:29:59","84","56.1","38.7","30.05","208","2.4","4.8","0.00","0.00"
"15:34:59","84.1","56.9","39.7","30.04","196","0.9","6","0.00","0.00"
"15:39:57","84.5","55.8","37.6","30.04","352","3.5","10.8","0.00","0.00"
"15:44:58","84.2","55.8","37.9","30.04","316","2.2","6","0.00","0.00"
"15:49:58","84.6","56","37.9","30.04","255","3.1","6","0.00","0.00"
"15:54:59","84.8","57.3","39.3","30.04","204","4.2","12","0.00","0.00"
"15:59:56","84.3","55.2","37","30.04","203","4.3","11.5","0.00","0.00"
"16:04:58","83.9","55.1","37.4","30.04","197","4.4","8.4","0.00","0.00"
"16:09:59","84.2","55.9","38.1","30.04","262","2.7","7.2","0.00","0.00"
"16:14:58","84.1","55.1","37.2","30.04","346","3.8","10.8","0.00","0.00"
"16:19:59","84.2","56","38.4","30.03","359","2","9.6","0.00","0.00"
"16:24:56","83.9","56.3","39","30.03","4","2.1","4.8","0.00","0.00"
"16:29:58","84.7","56.3","37.9","30.03","323","1.8","3.6","0.00","0.00"
"16:34:59","85","56.3","37.7","30.03","310","1.5","3.6","0.00","0.00"
"16:39:57","85.1","56.2","37.5","30.03","257","1.6","4.8","0.00","0.00"
"16:44:58","84.5","54.7","36.1","30.03","344","1.1","4.6","0.00","0.00"
"16:49:56","84.7","55.9","37.4","30.03","312","2.7","6","0.00","0.00"
"16:54:57","84.8","57","38.9","30.03","240","3","7.2","0.00","0.00"
"16:59:58","84.8","56.5","38.2","30.03","206","3.2","6","0.00","0.00"
"17:04:56","84.6","56.4","38.4","30.02","198","2.7","6","0.00","0.00"
"17:09:58","84.4","56.4","38.6","30.02","197","0.8","2.4","0.00","0.00"
"17:14:56","84.6","57.9","40.5","30.02","206","1.5","6","0.00","0.00"
"17:19:57","84.9","57.4","39.3","30.02","198","3.1","7.2","0.00","0.00"
"17:24:58","85","57.4","39.2","30.02","184","2.1","6","0.00","0.00"
"17:29:59","85.1","57.3","39","30.02","243","3.1","8.4","0.00","0.00"
"17:34:56","85.1","56.9","38.5","30.02","282","2.3","4.8","0.00","0.00"
"17:39:58","84.8","56.7","38.5","30.02","247","2.2","4.8","0.00","0.00"
"17:44:56","84.6","57.1","39.2","30.02","232","0.8","3.5","0.00","0.00"
"17:49:57","84.7","56.3","38","30.02","202","1.3","3.6","0.00","0.00"
"17:54:58","84.6","56.1","37.9","30.02","202","1","2.4","0.00","0.00"
"17:59:56","84.8","56.5","38.3","30.02","202","1.3","3.6","0.00","0.00"
"18:04:58","84.9","57.2","38.9","30.02","188","3.1","6","0.00","0.00"
"18:09:56","84.6","56.7","38.7","30.02","188","3.6","8.4","0.00","0.00"
"18:14:58","84.3","56.3","38.5","30.02","203","3.3","8.4","0.00","0.00"
"18:19:59","83.7","56.4","39.4","30.02","210","1.5","4.8","0.00","0.00"
"18:24:57","83.5","56.1","39.3","30.02","192","1.7","3.6","0.00","0.00"
"18:29:58","83.1","57","41.1","30.02","195","3","7.2","0.00","0.00"
"18:34:59","82.7","57.7","42.6","30.02","197","3.3","6","0.00","0.00"
"18:39:56","82.5","58","43.4","30.02","206","2.3","6","0.00","0.00"
"18:44:57","82.2","57.9","43.7","30.02","205","2.7","6","0.00","0.00"
"18:49:57","81.8","58","44.4","30.02","179","3","7.2","0.00","0.00"
"18:54:58","81.4","57.9","44.8","30.02","195","3.1","7.2","0.00","0.00"
"18:59:58","81.1","58","45.4","30.02","208","2.9","6.9","0.00","0.00"
"19:04:56","80.9","58","45.7","30.02","198","2","3.6","0.00","0.00"
"19:09:58","80.6","57.8","45.8","30.02","196","2.4","7.2","0.00","0.00"
"19:14:59","80.4","58.2","46.8","30.02","190","1.5","6.9","0.00","0.00"
"19:19:57","80.1","58.1","47.2","30.02","189","2.3","4.8","0.00","0.00"
"19:24:58","79.8","58.3","47.9","30.02","196","2.5","4.8","0.00","0.00"
"19:29:59","79.5","58.5","48.7","30.03","209","2","6","0.00","0.00"
"19:34:56","79.3","58.4","48.9","30.03","214","1.8","3.6","0.00","0.00"
"19:39:59","79.1","58.3","49","30.03","214","1.5","3.6","0.00","0.00"
"19:44:56","78.9","58.7","50.1","30.03","214","1.2","3.5","0.00","0.00"
"19:49:57","78.5","58.9","51.1","30.03","214","1.3","2.4","0.00","0.00"
"19:54:56","78","58.8","51.8","30.03","214","0.8","2.3","0.00","0.00"
"19:59:57","77.5","58.7","52.4","30.03","214","0.4","2.4","0.00","0.00"
"20:04:57","76.9","58.9","53.8","30.03","214","0","1.2","0.00","0.00"
"20:09:57","76","59","55.7","30.03","214","0","0","0.00","0.00"
"20:14:59","75.2","59","57.3","30.03","214","0","0","0.00","0.00"
"20:19:59","74.5","59.1","58.9","30.03","214","0","0","0.00","0.00"
"20:24:56","73.9","59.6","61","30.03","214","0","0","0.00","0.00"
"20:29:56","73.3","59.7","62.4","30.05","214","0","0","0.00","0.00"
"20:34:57","72.7","59.4","63","30.05","214","0","0","0.00","0.00"
"20:39:58","72.2","59.2","63.7","30.05","214","0","0","0.00","0.00"
"20:44:59","71.7","59.3","65","30.05","214","0","0","0.00","0.00"
"20:49:56","71.4","59.2","65.5","30.05","214","0","0","0.00","0.00"
"20:54:56","71","59.3","66.6","30.05","214","0","0","0.00","0.00"
"20:59:57","70.5","59.2","67.4","30.06","214","0","0","0.00","0.00"
"21:04:57","70.2","59.3","68.5","30.06","214","0","0","0.00","0.00"
"21:09:58","69.8","59.3","69.2","30.06","214","0","0","0.00","0.00"
"21:14:59","69.4","59.3","70.1","30.06","214","0.1","1.2","0.00","0.00"
"21:19:56","69.1","59.3","71","30.06","214","0.8","1.2","0.00","0.00"
"21:24:59","69","59.6","72.1","30.06","214","0.2","1.2","0.00","0.00"
"21:29:56","68.9","59.8","72.8","30.06","214","0","0","0.00","0.00"
"21:34:57","68.5","59.5","73","30.06","214","0","0","0.00","0.00"
"21:39:58","68.2","59.5","73.7","30.06","214","0.3","1.2","0.00","0.00"
"21:44:58","67.9","59.5","74.5","30.07","214","0.7","1.2","0.00","0.00"
"21:49:59","67.8","59.5","74.9","30.07","214","0","0","0.00","0.00"
"21:54:59","67.7","59.5","75","30.07","214","0","1.2","0.00","0.00"
"21:59:56","67.5","59.5","75.5","30.07","214","0","0","0.00","0.00"
"22:04:56","67.3","59.5","76","30.07","214","0","0","0.00","0.00"
"22:09:56","67.1","59.3","76.2","30.07","214","0","0","0.00","0.00"
"22:14:57","66.7","59.3","77","30.08","214","0","0","0.00","0.00"
"22:19:59","66.3","59.1","77.7","30.08","214","0","0","0.00","0.00"
"22:24:59","65.9","58.9","78.3","30.08","214","0","0","0.00","0.00"
"22:29:57","65.6","59.1","79.5","30.08","214","0","0","0.00","0.00"
"22:34:57","65.4","59.1","80","30.07","214","0","0","0.00","0.00"
"22:39:59","65.3","59","80","30.07","214","0","0","0.00","0.00"
"22:44:59","65.3","59","80","30.08","214","0","0","0.00","0.00"
"22:49:56","65.2","58.9","80","30.08","214","0","0","0.00","0.00"
"22:54:56","65.1","59.1","81","30.08","214","0","0","0.00","0.00"
"22:59:57","64.9","59.1","81.5","30.08","214","0","0","0.00","0.00"
"23:04:58","64.6","59","82","30.08","214","0","0","0.00","0.00"
"23:09:58","64.3","58.7","82.1","30.08","214","0","0","0.00","0.00"
"23:14:59","64.1","58.8","83","30.08","214","0","0","0.00","0.00"
"23:19:59","63.9","58.6","83","30.08","214","0","0","0.00","0.00"
"23:24:56","63.7","58.8","83.9","30.08","214","0","0","0.00","0.00"
"23:29:56","63.5","58.6","84.1","30.08","214","0","0","0.00","0.00"
"23:34:56","63.3","58.7","85","30.08","214","0","0","0.00","0.00"
"23:39:58","63.1","58.5","85","30.08","214","0","0","0.00","0.00"
"23:44:58","62.9","58.5","85.8","30.08","214","0","0","0.00","0.00"
"23:49:59","62.7","58.5","86","30.08","214","0","0","0.00","0.00"
"23:54:59","62.6","58.4","86.2","30.08","214","0","0","0.00","0.00"
